Fremont, MI

5:18 AM EDT on September 16, 2019 (GMT -0400)
Fremont

Weather History for KFFX - July, 2019

Change the Weather History Date:

Monday, July 15, 2019

  Actual Average (KMKG) Record (KMKG)
Temperature  
Mean Temperature 75 °F -  
Max Temperature 88 °F 80 °F 93 °F (1995)
Min Temperature 62 °F 61 °F 48 °F (1960)
Cooling Degree Days 10    
Growing Degree Days 25 (Base 50)    
Moisture  
Dew Point 62 °F    
Average Humidity 61    
Maximum Humidity 85    
Minimum Humidity 39    
Precipitation  
Precipitation 0.00 in - - ()
Sea Level Pressure  
Sea Level Pressure 30.02 in    
Wind  
Wind Speed 5 mph (SSW)    
Max Wind Speed 16 mph    
Max Gust Speed 22 mph    
Visibility 10 miles    
Events      
Averages and records for this station are not official NWS values.
T = Trace of Precipitation, MM = Missing Value Source: NWS Daily Summary

Daily Weather History Graph

Daily Weather History Graph

Search for Another Location

Airport or City:

Astronomy

Jul. 15, 2019 Rise Set
Actual Time 6:16 AM EDT 9:22 PM EDT
Civil Twilight 5:42 AM EDT 9:57 PM EDT
Nautical Twilight 4:58 AM EDT 10:41 PM EDT
Astronomical Twilight 4:04 AM EDT 11:33 PM EDT
Moon 8:40 PM EDT (7/15) 5:03 AM EDT (7/15)
Length of Visible Light 16h 14m
Length of Day
15h 05m
Waxing Gibbous, 98% of the Moon is Illuminated
Jul 15
Waxing Gibbous
Jul 16
Full
Jul 24
Last Quarter
Jul 31
New
Aug 7
First Quarter

Hourly Weather History & Observations

Time (EDT) Temp. Heat Index Dew Point Humidity Pressure Visibility Wind Dir Wind Speed Gust Speed Precip Events Conditions
12:17 AM 65.5 °F - 56.5 °F 73% 30.11 in 10.0 mi Calm Calm - N/A   Overcast
12:35 AM 65.7 °F - 56.7 °F 73% 30.10 in 10.0 mi Calm Calm - N/A   Mostly Cloudy
12:36 AM 65.7 °F - 56.7 °F 73% 30.10 in 10.0 mi Calm Calm - N/A   Mostly Cloudy
12:55 AM 63.5 °F - 56.3 °F 77% 30.10 in 10.0 mi Calm Calm - N/A   Mostly Cloudy
1:15 AM 64.8 °F - 57.4 °F 77% 30.09 in 10.0 mi Calm Calm - N/A   Mostly Cloudy
1:38 AM 63.1 °F - 57.2 °F 81% 30.09 in 10.0 mi ESE 3.5 mph - N/A   Clear
1:56 AM 63.0 °F - 57.7 °F 83% 30.08 in 10.0 mi Calm Calm - N/A   Clear
2:15 AM 63.0 °F - 58.5 °F 85% 30.08 in 10.0 mi Calm Calm - N/A   Clear
2:16 AM 63.1 °F - 58.5 °F 85% 30.08 in 10.0 mi Calm Calm - N/A   Clear
2:35 AM 62.6 °F - 57.2 °F 82% 30.08 in 10.0 mi East 4.6 mph - N/A   Clear
2:59 AM 65.7 °F - 57.2 °F 74% 30.08 in 10.0 mi East 3.5 mph - N/A   Clear
3:17 AM 65.3 °F - 57.2 °F 75% 30.07 in 10.0 mi East 4.6 mph - N/A   Clear
3:35 AM 65.3 °F - 56.8 °F 74% 30.06 in 10.0 mi East 4.6 mph - N/A   Clear
3:36 AM 65.3 °F - 56.8 °F 74% 30.06 in 10.0 mi East 4.6 mph - N/A   Clear
3:55 AM 65.5 °F - 56.1 °F 72% 30.06 in 10.0 mi East 4.6 mph - N/A   Scattered Clouds
4:15 AM 66.2 °F - 55.8 °F 69% 30.05 in 10.0 mi East 4.6 mph - N/A   Scattered Clouds
4:38 AM 66.7 °F - 55.0 °F 66% 30.05 in 10.0 mi ESE 3.5 mph - N/A   Scattered Clouds
4:56 AM 66.4 °F - 55.0 °F 67% 30.05 in 10.0 mi East 4.6 mph - N/A   Scattered Clouds
5:15 AM 66.0 °F - 55.4 °F 69% 30.05 in 10.0 mi East 5.8 mph - N/A   Clear
5:16 AM 66.0 °F - 55.4 °F 69% 30.05 in 10.0 mi East 5.8 mph - N/A   Clear
5:35 AM 65.5 °F - 55.4 °F 70% 30.04 in 10.0 mi ESE 3.5 mph - N/A   Clear
5:36 AM 65.5 °F - 55.4 °F 70% 30.04 in 10.0 mi ESE 3.5 mph - N/A   Clear
5:59 AM 65.3 °F - 55.4 °F 70% 30.05 in 10.0 mi Calm Calm - N/A   Clear
6:17 AM 65.3 °F - 55.4 °F 70% 30.05 in 10.0 mi North - - N/A   Clear
6:35 AM 65.7 °F - 55.8 °F 70% 30.04 in 10.0 mi Calm Calm - N/A   Clear
6:36 AM 65.8 °F - 55.8 °F 70% 30.04 in 10.0 mi Calm Calm - N/A   Clear
6:55 AM 66.6 °F - 56.3 °F 69% 30.04 in 10.0 mi South 3.5 mph - N/A   Clear
6:56 AM 66.4 °F - 56.3 °F 70% 30.04 in 10.0 mi South 3.5 mph - N/A   Clear
7:15 AM 68.0 °F - 57.2 °F 68% 30.05 in 10.0 mi South 3.5 mph - N/A   Clear
7:20 AM 68.0 °F - 57.4 °F 69% 30.04 in 10.0 mi Calm Calm - N/A   Clear
7:38 AM 68.2 °F - 58.1 °F 70% 30.05 in 10.0 mi Calm Calm - N/A   Clear
7:56 AM 68.9 °F - 59.0 °F 71% 30.06 in 10.0 mi Calm Calm - N/A   Clear
8:15 AM 71.6 °F - 60.4 °F 68% 30.06 in 10.0 mi South 4.6 mph - N/A   Scattered Clouds
8:16 AM 71.8 °F - 60.4 °F 67% 30.07 in 10.0 mi South 3.5 mph - N/A   Scattered Clouds
8:35 AM 72.9 °F - 62.2 °F 69% 30.07 in 10.0 mi SSW 5.8 mph - N/A   Overcast
8:59 AM 73.8 °F - 63.9 °F 71% 30.07 in 10.0 mi SSW 10.4 mph - N/A   Mostly Cloudy
9:17 AM 74.7 °F - 64.6 °F 71% 30.07 in 10.0 mi SSW 6.9 mph - N/A   Mostly Cloudy
9:35 AM 74.5 °F - 64.9 °F 72% 30.06 in 10.0 mi SSW 6.9 mph - N/A   Mostly Cloudy
9:36 AM 74.5 °F - 64.9 °F 72% 30.06 in 10.0 mi SSW 6.9 mph - N/A   Mostly Cloudy
9:55 AM 76.1 °F - 65.7 °F 70% 30.06 in 10.0 mi SSW 6.9 mph - N/A   Scattered Clouds
10:15 AM 79.3 °F - 66.2 °F 64% 30.05 in 10.0 mi SSW 6.9 mph - N/A   Clear
10:38 AM 81.3 °F 83.8 °F 67.1 °F 62% 30.05 in 10.0 mi SSW 5.8 mph - N/A   Clear
10:56 AM 82.6 °F 85.5 °F 67.8 °F 61% 30.04 in 10.0 mi SW 5.8 mph - N/A   Scattered Clouds
11:15 AM 84.9 °F 88.2 °F 68.0 °F 57% 30.04 in 10.0 mi SW 8.1 mph - N/A   Scattered Clouds
11:16 AM 84.9 °F 88.2 °F 68.0 °F 57% 30.04 in 10.0 mi SW 9.2 mph - N/A   Scattered Clouds
11:35 AM 84.9 °F 88.2 °F 68.4 °F 57% 30.03 in 10.0 mi WSW 8.1 mph - N/A   Scattered Clouds
11:36 AM 84.7 °F 88.2 °F 68.4 °F 58% 30.03 in 10.0 mi West 5.8 mph - N/A   Scattered Clouds
11:59 AM 82.9 °F 86.3 °F 68.5 °F 62% 30.03 in 10.0 mi WSW 8.1 mph - N/A   Mostly Cloudy
12:16 PM 83.3 °F 86.6 °F 68.7 °F 61% 30.03 in 10.0 mi West 8.1 mph - N/A   Mostly Cloudy
12:35 PM 84.6 °F 88.2 °F 68.9 °F 59% 30.03 in 10.0 mi SW 8.1 mph - N/A   Mostly Cloudy
12:55 PM 85.6 °F 89.4 °F 68.9 °F 57% 30.02 in 10.0 mi WSW 11.5 mph - N/A   Scattered Clouds
12:56 PM 85.6 °F 89.4 °F 68.9 °F 57% 30.02 in 10.0 mi SW 9.2 mph - N/A   Scattered Clouds
1:15 PM 86.0 °F 89.4 °F 68.2 °F 55% 30.02 in 10.0 mi SW 9.2 mph 17.3 mph N/A   Scattered Clouds
1:19 PM 85.5 °F 89.1 °F 68.7 °F 57% 30.02 in 10.0 mi SSW 10.4 mph 16.1 mph N/A   Scattered Clouds
1:37 PM 85.3 °F 88.8 °F 68.7 °F 57% 30.01 in 10.0 mi SSW 12.7 mph 17.3 mph N/A   Scattered Clouds
1:55 PM 84.2 °F 87.6 °F 68.4 °F 59% 30.01 in 10.0 mi SW 9.2 mph - N/A   Scattered Clouds
2:15 PM 83.8 °F 87.0 °F 68.2 °F 59% 30.01 in 10.0 mi SW 12.7 mph - N/A   Mostly Cloudy
2:35 PM 84.7 °F 87.9 °F 68.2 °F 57% 30.00 in 10.0 mi WSW 10.4 mph 17.3 mph N/A   Mostly Cloudy
2:40 PM 85.3 °F 88.5 °F 68.2 °F 56% 30.00 in 10.0 mi WSW 11.5 mph 17.3 mph N/A   Scattered Clouds
2:58 PM 86.0 °F 89.1 °F 67.8 °F 54% 30.00 in 10.0 mi WSW 12.7 mph 16.1 mph N/A   Scattered Clouds
3:16 PM 85.3 °F 88.2 °F 67.3 °F 55% 29.99 in 10.0 mi WSW 15.0 mph 21.9 mph N/A   Mostly Cloudy
3:35 PM 86.7 °F 89.6 °F 67.1 °F 52% 29.98 in 10.0 mi WSW 12.7 mph 21.9 mph N/A   Scattered Clouds
3:36 PM 86.7 °F 89.6 °F 67.3 °F 52% 29.98 in 10.0 mi SW 12.7 mph 18.4 mph N/A   Scattered Clouds
3:55 PM 86.9 °F 89.9 °F 67.1 °F 52% 29.98 in 10.0 mi WSW 11.5 mph 19.6 mph N/A   Scattered Clouds
4:19 PM 88.2 °F 90.6 °F 66.4 °F 48% 29.98 in 10.0 mi SW 16.1 mph 19.6 mph N/A   Scattered Clouds
4:37 PM 87.8 °F 90.0 °F 65.7 °F 48% 29.97 in 10.0 mi SW 16.1 mph 21.9 mph N/A   Scattered Clouds
4:55 PM 88.0 °F 90.0 °F 65.5 °F 47% 29.96 in 10.0 mi WSW 13.8 mph 19.6 mph N/A   Scattered Clouds
4:56 PM 88.0 °F 90.0 °F 65.5 °F 47% 29.97 in 10.0 mi WSW 13.8 mph 19.6 mph N/A   Scattered Clouds
5:15 PM 87.8 °F 89.4 °F 64.4 °F 46% 29.96 in 10.0 mi SW 11.5 mph 20.7 mph N/A   Scattered Clouds
5:35 PM 87.1 °F 87.5 °F 62.1 °F 43% 29.95 in 10.0 mi WSW 11.5 mph 19.6 mph N/A   Scattered Clouds
5:58 PM 86.9 °F 86.5 °F 59.9 °F 40% 29.96 in 10.0 mi SW 13.8 mph 19.6 mph N/A   Clear
6:16 PM 86.9 °F 86.3 °F 59.0 °F 39% 29.95 in 10.0 mi SW 15.0 mph 19.6 mph N/A   Clear
6:35 PM 86.9 °F 86.3 °F 59.2 °F 39% 29.96 in 10.0 mi SW 11.5 mph 18.4 mph N/A   Clear
6:36 PM 86.9 °F 86.3 °F 59.2 °F 39% 29.96 in 10.0 mi SW 12.7 mph 18.4 mph N/A   Clear
6:55 PM 86.7 °F 86.1 °F 59.0 °F 39% 29.97 in 10.0 mi SW 9.2 mph 21.9 mph N/A   Clear
6:56 PM 86.5 °F 85.9 °F 59.2 °F 39% 29.97 in 10.0 mi SW 8.1 mph 21.9 mph N/A   Clear
7:18 PM 85.8 °F 85.4 °F 59.7 °F 41% 29.97 in 10.0 mi SW 10.4 mph 17.3 mph N/A   Clear
7:37 PM 85.6 °F 85.4 °F 60.1 °F 42% 29.97 in 10.0 mi SW 11.5 mph - N/A   Clear
7:55 PM 85.3 °F 85.0 °F 60.1 °F 42% 29.96 in 10.0 mi SW 10.4 mph - N/A   Clear
8:15 PM 84.2 °F 84.4 °F 60.6 °F 45% 29.96 in 10.0 mi SSW 9.2 mph - N/A   Clear
8:35 PM 82.6 °F 83.1 °F 61.0 °F 48% 29.96 in 10.0 mi SSW 10.4 mph - N/A   Clear
8:40 PM 82.0 °F 82.7 °F 61.2 °F 49% 29.96 in 10.0 mi SSW 9.2 mph - N/A   Clear
8:58 PM 80.4 °F 81.5 °F 61.9 °F 53% 29.95 in 10.0 mi SSW 9.2 mph - N/A   Clear
9:16 PM 79.0 °F - 62.6 °F 57% 29.95 in 10.0 mi SSW 6.9 mph - N/A   Clear
9:35 PM 77.9 °F - 62.8 °F 60% 29.95 in 10.0 mi SSW 6.9 mph - N/A   Clear
9:36 PM 77.9 °F - 62.8 °F 60% 29.95 in 10.0 mi SSW 6.9 mph - N/A   Clear
9:55 PM 77.4 °F - 63.1 °F 61% 29.95 in 10.0 mi SSW 8.1 mph - N/A   Clear
9:56 PM 77.4 °F - 63.1 °F 61% 29.95 in 10.0 mi SSW 8.1 mph - N/A   Clear
10:19 PM 77.7 °F - 63.0 °F 60% 29.96 in 10.0 mi SW 9.2 mph - N/A   Clear
10:37 PM 78.1 °F - 63.5 °F 61% 29.97 in 10.0 mi SW 9.2 mph - N/A   Scattered Clouds
10:55 PM 77.9 °F - 63.9 °F 62% 29.98 in 10.0 mi SW 8.1 mph - N/A   Scattered Clouds
11:15 PM 78.3 °F - 63.9 °F 61% 29.98 in 10.0 mi SW 9.2 mph - N/A   Mostly Cloudy
11:16 PM 78.3 °F - 63.7 °F 61% 29.98 in 10.0 mi SW 9.2 mph - N/A   Mostly Cloudy
11:35 PM 78.8 °F - 63.1 °F 59% 29.99 in 10.0 mi SW 9.2 mph - N/A   Overcast
11:40 PM 78.8 °F - 63.1 °F 59% 29.99 in 10.0 mi SW 11.5 mph 17.3 mph N/A   Overcast
11:58 PM 78.8 °F - 62.8 °F 58% 29.99 in 10.0 mi SW 13.8 mph - N/A   Mostly Cloudy